Weather History for Fargo, ND

Change the Weather History Date:

Monday, December 26, 2011

  Actual Average Record
Temperature  
Mean Temperature 42 °F 11 °F  
Max Temperature 52 °F 19 °F 52 °F (2011)
Min Temperature 31 °F 3 °F -32 °F (1886)
Degree Days  
Heating Degree Days 23 54  
Month to date heating degree days 1034 1306  
Since 1 July heating degree days 2580 3268  
Cooling Degree Days 0 0  
Month to date cooling degree days 0 0  
Year to date cooling degree days 694 551  
Moisture  
Dew Point 24 °F    
Average Humidity 51    
Maximum Humidity 70    
Minimum Humidity 32    
Precipitation  
Precipitation T in 0.03 in 0.53 in (1988)
Month to date precipitation 0.05 0.69  
Year to date precipitation 23.64 22.47  
Snow  
Snow 0.00 in 0.40 in 8.50 in (1988)
Month to date snowfall 1.0 9.2  
Since 1 July snowfall 1.8 17.8  
Snow Depth 0.00 in    
Sea Level Pressure  
Sea Level Pressure 29.68 in    
Wind  
Wind Speed 18 mph (WSW)    
Max Wind Speed 33 mph    
Max Gust Speed 41 mph    
Visibility 10 miles    
Events      
T = Trace of Precipitation, MM = Missing Value Source: NWS Daily Summary

Daily Weather History Graph

Daily Weather History Graph

Search for Another Location

Airport:

Trip Planner

Search our weather history database for the weather conditions in past years. The results will help you decide how hot, cold, wet, or windy it might be!

Date:

Astronomy

Dec. 26, 2011 Rise Set
Actual Time 8:11 AM CST 4:43 PM CST
Civil Twilight 7:36 AM CST 5:19 PM CST
Nautical Twilight 6:57 AM CST 5:58 PM CST
Astronomical Twilight 6:20 AM CST 6:35 PM CST
Moon 9:25 AM CST (12/26) 7:21 PM CST (12/26)
Length of Visible Light 9h 42m
Length of Day
8h 32m
Waxing Crescent, 5% of the Moon is Illuminated
Dec 26
Waxing Crescent
Jan 1
First Quarter
Jan 9
Full
Jan 16
Last Quarter
Jan 23
New

Hourly Weather History & Observations

Time (CST) Temp. Windchill Dew Point Humidity Pressure Visibility Wind Dir Wind Speed Gust Speed Precip Events Conditions
12:53 AM 30.9 °F 21.7 °F 18.0 °F 59% 29.88 in 10.0 mi SSE 11.5 mph - N/A   Clear
1:53 AM 32.0 °F 22.1 °F 19.0 °F 59% 29.82 in 10.0 mi South 13.8 mph 21.9 mph N/A   Clear
2:53 AM 33.1 °F 22.2 °F 19.0 °F 56% 29.78 in 10.0 mi SSE 17.3 mph 24.2 mph N/A   Clear
3:53 AM 30.9 °F 19.4 °F 18.0 °F 59% 29.73 in 10.0 mi SSE 17.3 mph - N/A   Clear
4:53 AM 32.0 °F 20.8 °F 19.0 °F 59% 29.67 in 10.0 mi South 17.3 mph - N/A   Clear
5:53 AM 33.1 °F 23.4 °F 19.9 °F 59% 29.62 in 10.0 mi South 13.8 mph - N/A   Clear
6:53 AM 33.1 °F 24.4 °F 19.9 °F 59% 29.60 in 10.0 mi South 11.5 mph - N/A   Clear
7:53 AM 33.1 °F 24.9 °F 19.9 °F 59% 29.58 in 10.0 mi South 10.4 mph - N/A   Clear
8:53 AM 37.0 °F 28.9 °F 21.9 °F 54% 29.58 in 10.0 mi SW 12.7 mph - N/A   Clear
9:53 AM 39.9 °F 32.9 °F 24.1 °F 53% 29.59 in 10.0 mi WSW 11.5 mph - N/A   Clear
10:53 AM 46.9 °F - 24.1 °F 41% 29.60 in 10.0 mi West 19.6 mph - N/A   Clear
11:53 AM 51.1 °F - 23.0 °F 33% 29.58 in 10.0 mi West 26.5 mph 33.4 mph N/A   Clear
12:53 PM 48.9 °F - 21.9 °F 35% 29.55 in 10.0 mi West 19.6 mph 31.1 mph N/A   Clear
1:53 PM 51.1 °F - 23.0 °F 33% 29.54 in 10.0 mi West 29.9 mph 41.4 mph N/A   Clear
2:53 PM 50.0 °F - 24.1 °F 36% 29.55 in 10.0 mi West 26.5 mph 35.7 mph N/A   Mostly Cloudy
3:53 PM 48.0 °F - 28.9 °F 48% 29.58 in 10.0 mi West 26.5 mph 35.7 mph N/A   Overcast
4:53 PM 44.1 °F 35.7 °F 28.0 °F 53% 29.62 in 10.0 mi West 20.7 mph - N/A   Clear
5:53 PM 42.1 °F 32.8 °F 28.0 °F 58% 29.65 in 10.0 mi WNW 21.9 mph 32.2 mph N/A   Partly Cloudy
6:53 PM 39.9 °F 30.2 °F 28.0 °F 63% 29.70 in 10.0 mi NW 20.7 mph 33.4 mph N/A   Scattered Clouds
7:53 PM 37.9 °F 27.6 °F 28.0 °F 68% 29.75 in 10.0 mi NW 20.7 mph 27.6 mph N/A   Clear
8:13 PM 37.4 °F 28.2 °F 28.4 °F 70% 29.72 in 10.0 mi WNW 16.1 mph 24.2 mph N/A   Mostly Cloudy
8:53 PM 39.0 °F 31.8 °F 28.0 °F 65% 29.77 in 10.0 mi NW 11.5 mph - N/A   Overcast
9:53 PM 39.0 °F 29.6 °F 28.0 °F 65% 29.79 in 10.0 mi NNW 18.4 mph 26.5 mph N/A   Overcast
10:53 PM 36.0 °F 25.6 °F 27.0 °F 70% 29.82 in 10.0 mi North 18.4 mph - 0.00 in   Overcast
11:53 PM 34.0 °F 22.1 °F 25.0 °F 70% 29.86 in 10.0 mi North 21.9 mph 28.8 mph N/A   Overcast